Location: Tuttlingen
(47.9853°N, 8.8165°E)
Time: 01:19:46
(UTC+01:00)

ISS - Pass Details

Date: 14 November 2017
Orbit: 402 x 407 km, 51.6° (Epoch: 20 November)

Event Time Altitude Azimuth Distance (km) Brightness Sun altitude
Exits shadow 05:45:25 55° 268° (W) 489 -3.8 -17.4°
Maximum altitude 05:45:58 72° 208° (SSW) 427 -3.9 -17.3°
Drops below altitude 10° 05:49:12 10° 122° (ESE) 1,452 0.0 -16.8°
Sets 05:51:17 0° 121° (ESE) 2,308 1.3 -16.4°
